Regional Weather Roundup
Issued by NWS Albany, NY

Home | Current Version | Previous Version | Text Only | Print | Product List | Glossary On
Versions: 1 2 3 4 5 6 7 8 9 10 11 12 13 14 15 16 17 18 19 20 21 22 23 24 25 26 27 28 29 30 31 32 33 34 35 36 37 38 39 40 41 42 43 44 45 46 47 48 49 50
000
ASUS41 KALY 271210
RWRALY

NEW YORK STATE HOURLY WEATHER ROUNDUP
NATIONAL WEATHER SERVICE ALBANY NY
700 AM EST TUE JAN 27 2015

NOTE: "FAIR" INDICATES FEW OR NO CLOUDS BELOW 12,000 FEET WITH NO
SIGNIFICANT WEATHER AND/OR NO OBSTRUCTIONS TO VISIBILITY.

NYZ032-033-038>043-046>054-057>066-NYZ062>081-271300-
EAST


CITY           SKY/WX    TMP DP  RH WIND       PRES   REMARKS
ALBANY         FLURRIES  13   2  61 N12       29.83S WCI  -1
GLENS FALLS    CLOUDY    13   0  56 NE7       29.85F WCI   3
POUGHKEEPSIE   CLOUDY    18  10  71 N13G22    29.73S WCI   5
NEWBURGH       LGT SNOW  18  12  79 N14G23    29.71S WCI   4
MONTGOMERY     CLOUDY    18  13  80 N3        29.71R
WHITE PLAINS   LGT SNOW  17  11  77 N29G39    29.60R VSB 1   WCI  -2
ISLIP          HVY SNOW  21  18  88 N20G28    29.56R VSB 1/4 WCI   6
NEW YORK CITY  LGT SNOW  22  14  71 N21G33    29.66R WCI   6
CENTRAL PARK   CLOUDY    22  12  65 MISG      29.68R
$$

NYZ005>009-017-018-044>046-055-056-271300-
CENTRAL


CITY           SKY/WX    TMP DP  RH WIND       PRES   REMARKS
FULTON         CLEAR      7   0  73 N12       29.92R WCI  -8
SYRACUSE       CLOUDY     8   3  80 W9        29.90R WCI  -5
ROME           CLOUDY     8  -2  63 NW8       29.89S WCI  -4
ELMIRA         CLOUDY    17  11  77 CALM      29.85S
BINGHAMTON     MOCLDY    13   6  74 N12       29.74S WCI  -1
MONTICELLO     CLOUDY    16   9  73 NW12      29.68S WCI   3
$$

NYZ026>034-041>043-271300-
NORTH


CITY           SKY/WX    TMP DP  RH WIND       PRES   REMARKS
WATERTOWN      PTCLDY     5  -5  63 NE14G22   29.99R WCI -12
FORT DRUM      NOT AVBL
MASSENA        CLOUDY     6  -4  63 NE20G29   30.07R WCI -14
SARANAC LAKE   CLOUDY     2  -7  66 NE15      29.81S WCI -17
PLATTSBURGH    CLOUDY     7  -4  60 N22       29.99F WCI -14
$$

NYZ001>004-010>016-019>021-271300-
WEST


CITY           SKY/WX    TMP DP  RH WIND       PRES   REMARKS
NIAGARA FALLS  LGT SNOW  15  10  80 NE17      30.00R WCI  -1
BUFFALO        LGT SNOW  14   9  80 NE13      29.97R WCI   0
DUNKIRK        LGT SNOW  17  13  84 NE14      29.96R FOG     WCI   3
JAMESTOWN      CLOUDY    12   9  85 N8        29.84R WCI   1
WELLSVILLE     FLURRIES  12   9  87 N6        29.80R WCI   3
ROCHESTER      FLURRIES  16  11  80 NE16      29.97R WCI   1
PENN YAN       CLOUDY    15  11  83 N7        29.88R WCI   5
$$

             KEY
       WCI = WIND CHILL INDEX
       VSB = VISIBILITY
       HX  = HEAT INDEX
$$



USA.gov is the U.S. government's official web portal to all federal, state and local government web resources and services.